Time,TemperatureF,DewpointF,PressureIn,WindDirection,WindDirectionDegrees,WindSpeedMPH,WindSpeedGustMPH,Humidity,HourlyPrecipIn,Conditions,Clouds,dailyrainin,SoftwareType,DateUTC
2013-03-05 00:13:00,38.2,38.0,30.06,SSW,209,0.0,1.0,99,0.00,,,0.00,weatherlink.com 1.10,2013-03-05 08:13:00,
2013-03-05 00:28:00,37.9,37.0,30.06,SSW,209,0.0,1.0,98,0.00,,,0.00,weatherlink.com 1.10,2013-03-05 08:28:00,
2013-03-05 00:43:00,37.8,38.0,30.07,SSW,209,0.0,0.0,99,0.00,,,0.00,weatherlink.com 1.10,2013-03-05 08:43:00,
2013-03-05 00:58:00,37.8,38.0,30.07,SSW,209,0.0,1.0,99,0.00,,,0.00,weatherlink.com 1.10,2013-03-05 08:58:00,
2013-03-05 01:13:00,37.5,37.0,30.08,SSW,209,0.0,0.0,99,0.00,,,0.00,weatherlink.com 1.10,2013-03-05 09:13:00,
2013-03-05 01:28:00,37.5,37.0,30.08,SSW,209,0.0,1.0,99,0.00,,,0.00,weatherlink.com 1.10,2013-03-05 09:28:00,
2013-03-05 01:43:00,37.5,37.0,30.07,SSW,209,0.0,0.0,99,0.00,,,0.00,weatherlink.com 1.10,2013-03-05 09:43:00,
2013-03-05 01:58:00,36.9,37.0,30.07,SSW,209,0.0,1.0,99,0.00,,,0.00,weatherlink.com 1.10,2013-03-05 09:58:00,
2013-03-05 02:13:00,36.4,36.0,30.06,SSW,209,0.0,1.0,99,0.00,,,0.00,weatherlink.com 1.10,2013-03-05 10:13:00,
2013-03-05 02:28:00,35.9,36.0,30.05,SSW,209,0.0,1.0,99,0.00,,,0.00,weatherlink.com 1.10,2013-03-05 10:28:00,
2013-03-05 02:43:00,35.9,36.0,30.06,SSW,209,0.0,1.0,99,0.00,,,0.00,weatherlink.com 1.10,2013-03-05 10:43:00,
2013-03-05 02:58:00,36.4,36.0,30.06,SSW,209,0.0,0.0,99,0.00,,,0.00,weatherlink.com 1.10,2013-03-05 10:58:00,
2013-03-05 03:13:00,36.6,36.0,30.07,SSW,209,0.0,0.0,99,0.01,,,0.01,weatherlink.com 1.10,2013-03-05 11:13:00,
2013-03-05 03:28:00,36.6,36.0,30.06,SSW,209,0.0,1.0,99,0.01,,,0.01,weatherlink.com 1.10,2013-03-05 11:28:00,
2013-03-05 03:43:00,36.2,36.0,30.06,SSW,209,0.0,1.0,99,0.01,,,0.01,weatherlink.com 1.10,2013-03-05 11:43:00,
2013-03-05 03:59:00,36.2,36.0,30.06,SSW,209,0.0,2.0,99,0.01,,,0.01,weatherlink.com 1.10,2013-03-05 11:59:00,
2013-03-05 04:14:00,35.8,36.0,30.05,SSW,209,0.0,0.0,99,0.00,,,0.01,weatherlink.com 1.10,2013-03-05 12:14:00,
2013-03-05 04:29:00,35.9,36.0,30.05,SSW,209,0.0,0.0,99,0.00,,,0.01,weatherlink.com 1.10,2013-03-05 12:29:00,
2013-03-05 04:44:00,35.7,36.0,30.05,SSW,209,0.0,0.0,99,0.00,,,0.01,weatherlink.com 1.10,2013-03-05 12:44:00,
2013-03-05 04:59:00,35.8,36.0,30.05,SSW,209,0.0,1.0,99,0.00,,,0.01,weatherlink.com 1.10,2013-03-05 12:59:00,
2013-03-05 05:14:00,36.3,36.0,30.05,SSW,209,0.0,1.0,99,0.00,,,0.01,weatherlink.com 1.10,2013-03-05 13:14:00,
2013-03-05 05:29:00,36.6,36.0,30.05,SSW,209,0.0,0.0,99,0.00,,,0.01,weatherlink.com 1.10,2013-03-05 13:29:00,
2013-03-05 05:44:00,37.5,38.0,30.05,SSW,209,0.0,0.0,100,0.00,,,0.01,weatherlink.com 1.10,2013-03-05 13:44:00,
2013-03-05 05:59:00,37.6,38.0,30.05,SSW,209,0.0,0.0,100,0.00,,,0.01,weatherlink.com 1.10,2013-03-05 13:59:00,
2013-03-05 06:14:00,38.1,38.0,30.05,SSW,209,1.0,1.0,100,0.00,,,0.01,weatherlink.com 1.10,2013-03-05 14:14:00,
2013-03-05 06:29:00,37.9,38.0,30.05,SSW,209,0.0,1.0,100,0.00,,,0.01,weatherlink.com 1.10,2013-03-05 14:29:00,
2013-03-05 06:44:00,37.5,38.0,30.06,SSW,209,0.0,1.0,100,0.00,,,0.01,weatherlink.com 1.10,2013-03-05 14:44:00,
2013-03-05 06:59:00,37.7,38.0,30.05,SSW,209,0.0,2.0,100,0.00,,,0.01,weatherlink.com 1.10,2013-03-05 14:59:00,
2013-03-05 07:14:00,37.7,38.0,30.05,SSW,209,0.0,2.0,100,0.00,,,0.01,weatherlink.com 1.10,2013-03-05 15:14:00,
2013-03-05 07:29:00,37.5,38.0,30.06,SW,215,0.0,2.0,100,0.00,,,0.01,weatherlink.com 1.10,2013-03-05 15:29:00,
2013-03-05 07:44:00,37.8,38.0,30.06,SW,224,1.0,2.0,100,0.00,,,0.01,weatherlink.com 1.10,2013-03-05 15:44:00,
2013-03-05 07:59:00,38.7,39.0,30.05,SSW,194,0.0,2.0,100,0.00,,,0.01,weatherlink.com 1.10,2013-03-05 15:59:00,
2013-03-05 08:14:00,39.4,39.0,30.05,WSW,253,0.0,1.0,100,0.00,,,0.01,weatherlink.com 1.10,2013-03-05 16:14:00,
2013-03-05 08:29:00,39.9,40.0,30.06,South,188,0.0,4.0,100,0.00,,,0.01,weatherlink.com 1.10,2013-03-05 16:29:00,
2013-03-05 08:44:00,40.4,40.0,30.05,SW,215,1.0,3.0,100,0.00,,,0.01,weatherlink.com 1.10,2013-03-05 16:44:00,
2013-03-05 08:59:00,40.3,40.0,30.05,SW,235,1.0,4.0,100,0.00,,,0.01,weatherlink.com 1.10,2013-03-05 16:59:00,
2013-03-05 09:14:00,40.8,41.0,30.05,SW,235,0.0,2.0,100,0.00,,,0.01,weatherlink.com 1.10,2013-03-05 17:14:00,
2013-03-05 09:29:00,41.4,41.0,30.05,SSW,209,1.0,3.0,100,0.00,,,0.01,weatherlink.com 1.10,2013-03-05 17:29:00,
2013-03-05 09:44:00,41.7,42.0,30.05,West,261,0.0,4.0,100,0.00,,,0.01,weatherlink.com 1.10,2013-03-05 17:44:00,
2013-03-05 09:59:00,41.9,42.0,30.06,SSW,204,1.0,4.0,100,0.00,,,0.01,weatherlink.com 1.10,2013-03-05 17:59:00,
2013-03-05 10:14:00,42.3,42.0,30.05,South,176,1.0,4.0,100,0.00,,,0.01,weatherlink.com 1.10,2013-03-05 18:14:00,
2013-03-05 10:29:00,42.4,42.0,30.05,South,187,3.0,5.0,100,0.00,,,0.01,weatherlink.com 1.10,2013-03-05 18:29:00,
2013-03-05 10:44:00,42.8,43.0,30.04,South,190,3.0,6.0,99,0.00,,,0.01,weatherlink.com 1.10,2013-03-05 18:44:00,
2013-03-05 10:59:00,43.1,43.0,30.04,South,171,6.0,6.0,98,0.00,,,0.01,weatherlink.com 1.10,2013-03-05 18:59:00,
2013-03-05 11:14:00,43.4,43.0,30.04,South,191,3.0,7.0,98,0.00,,,0.01,weatherlink.com 1.10,2013-03-05 19:14:00,
2013-03-05 11:29:00,43.8,43.0,30.03,SW,229,5.0,9.0,97,0.00,,,0.01,weatherlink.com 1.10,2013-03-05 19:29:00,
2013-03-05 11:44:00,44.6,44.0,30.03,SSE,164,5.0,9.0,96,0.00,,,0.01,weatherlink.com 1.10,2013-03-05 19:44:00,
2013-03-05 11:59:00,45.0,44.0,30.02,SSW,199,4.0,10.0,95,0.00,,,0.01,weatherlink.com 1.10,2013-03-05 19:59:00,
2013-03-05 12:14:00,45.5,44.0,30.02,South,178,3.0,7.0,95,0.00,,,0.01,weatherlink.com 1.10,2013-03-05 20:14:00,
2013-03-05 12:29:00,46.1,44.0,30.01,WSW,240,4.0,9.0,93,0.00,,,0.01,weatherlink.com 1.10,2013-03-05 20:29:00,
2013-03-05 12:44:00,47.0,44.0,30.00,South,173,4.0,8.0,90,0.00,,,0.01,weatherlink.com 1.10,2013-03-05 20:44:00,
2013-03-05 12:59:00,47.7,44.0,29.99,SSW,199,3.0,9.0,88,0.00,,,0.01,weatherlink.com 1.10,2013-03-05 20:59:00,
2013-03-05 13:15:00,47.7,44.0,29.98,South,175,5.0,8.0,86,0.00,,,0.01,weatherlink.com 1.10,2013-03-05 21:15:00,
2013-03-05 13:30:00,47.7,44.0,29.97,SSE,156,4.0,9.0,86,0.00,,,0.01,weatherlink.com 1.10,2013-03-05 21:30:00,
2013-03-05 13:45:00,47.9,44.0,29.96,South,171,5.0,13.0,85,0.00,,,0.01,weatherlink.com 1.10,2013-03-05 21:45:00,
2013-03-05 14:00:00,47.9,44.0,29.95,SSW,204,4.0,10.0,86,0.00,,,0.01,weatherlink.com 1.10,2013-03-05 22:00:00,
2013-03-05 14:15:00,48.4,44.0,29.95,South,180,4.0,8.0,86,0.00,,,0.01,weatherlink.com 1.10,2013-03-05 22:15:00,
2013-03-05 14:30:00,48.5,45.0,29.95,SSE,167,2.0,6.0,86,0.00,,,0.01,weatherlink.com 1.10,2013-03-05 22:30:00,
2013-03-05 14:45:00,48.7,45.0,29.94,SSE,162,4.0,10.0,86,0.00,,,0.01,weatherlink.com 1.10,2013-03-05 22:45:00,
2013-03-05 15:00:00,48.8,45.0,29.94,South,176,5.0,7.0,85,0.00,,,0.01,weatherlink.com 1.10,2013-03-05 23:00:00,
2013-03-05 15:15:00,48.9,44.0,29.93,SSE,165,5.0,14.0,83,0.00,,,0.01,weatherlink.com 1.10,2013-03-05 23:15:00,
2013-03-05 15:30:00,48.9,44.0,29.93,South,183,6.0,11.0,84,0.00,,,0.01,weatherlink.com 1.10,2013-03-05 23:30:00,
2013-03-05 15:45:00,48.8,45.0,29.91,SSE,167,8.0,13.0,85,0.00,,,0.01,weatherlink.com 1.10,2013-03-05 23:45:00,
2013-03-05 16:00:00,48.6,44.0,29.90,South,170,2.0,13.0,85,0.00,,,0.01,weatherlink.com 1.10,2013-03-06 00:00:00,
2013-03-05 16:15:00,48.2,44.0,29.90,South,171,4.0,12.0,86,0.00,,,0.01,weatherlink.com 1.10,2013-03-06 00:15:00,
2013-03-05 16:30:00,48.1,44.0,29.89,South,184,5.0,11.0,87,0.00,,,0.01,weatherlink.com 1.10,2013-03-06 00:30:00,
2013-03-05 16:45:00,47.6,44.0,29.88,SW,226,7.0,12.0,87,0.00,,,0.01,weatherlink.com 1.10,2013-03-06 00:45:00,
2013-03-05 17:00:00,47.1,44.0,29.87,SSE,153,4.0,15.0,88,0.00,,,0.01,weatherlink.com 1.10,2013-03-06 01:00:00,
2013-03-05 17:15:00,46.0,44.0,29.87,SSW,199,7.0,15.0,92,0.00,,,0.01,weatherlink.com 1.10,2013-03-06 01:15:00,
2013-03-05 17:30:00,45.4,44.0,29.86,SW,216,7.0,12.0,94,0.01,,,0.02,weatherlink.com 1.10,2013-03-06 01:30:00,
2013-03-05 17:45:00,45.1,44.0,29.87,SSW,199,4.0,10.0,95,0.03,,,0.04,weatherlink.com 1.10,2013-03-06 01:45:00,
2013-03-05 18:00:00,44.8,44.0,29.87,South,187,2.0,9.0,97,0.07,,,0.08,weatherlink.com 1.10,2013-03-06 02:00:00,
2013-03-05 18:15:00,44.6,44.0,29.87,SSW,204,3.0,8.0,98,0.11,,,0.12,weatherlink.com 1.10,2013-03-06 02:15:00,
2013-03-05 18:30:00,44.5,44.0,29.86,SSE,168,7.0,14.0,98,0.15,,,0.17,weatherlink.com 1.10,2013-03-06 02:30:00,
2013-03-05 18:45:00,44.5,44.0,29.85,SSE,159,10.0,14.0,98,0.18,,,0.22,weatherlink.com 1.10,2013-03-06 02:45:00,
2013-03-05 19:00:00,44.5,44.0,29.85,South,188,3.0,15.0,98,0.18,,,0.26,weatherlink.com 1.10,2013-03-06 03:00:00,
2013-03-05 19:15:00,44.5,44.0,29.83,WSW,240,12.0,17.0,99,0.16,,,0.28,weatherlink.com 1.10,2013-03-06 03:15:00,
2013-03-05 19:30:00,44.6,44.0,29.83,South,183,9.0,16.0,99,0.15,,,0.32,weatherlink.com 1.10,2013-03-06 03:30:00,
2013-03-05 19:45:00,44.7,45.0,29.82,South,186,10.0,15.0,99,0.13,,,0.35,weatherlink.com 1.10,2013-03-06 03:45:00,
2013-03-05 20:00:00,44.7,45.0,29.82,South,182,9.0,16.0,99,0.13,,,0.39,weatherlink.com 1.10,2013-03-06 04:00:00,
2013-03-05 20:16:00,44.7,45.0,29.82,South,172,11.0,15.0,99,0.16,,,0.44,weatherlink.com 1.10,2013-03-06 04:16:00,
2013-03-05 20:30:00,44.8,45.0,29.81,SSE,167,4.0,23.0,99,0.16,,,0.48,weatherlink.com 1.10,2013-03-06 04:30:00,
2013-03-05 20:46:00,44.9,45.0,29.79,SE,145,12.0,18.0,99,0.17,,,0.52,weatherlink.com 1.10,2013-03-06 04:46:00,
2013-03-05 21:01:00,45.0,45.0,29.80,SSE,149,12.0,22.0,99,0.15,,,0.54,weatherlink.com 1.10,2013-03-06 05:01:00,
2013-03-05 21:16:00,45.2,45.0,29.80,South,176,9.0,19.0,99,0.12,,,0.56,weatherlink.com 1.10,2013-03-06 05:16:00,
2013-03-05 21:31:00,45.5,45.0,29.78,SSW,199,12.0,24.0,99,0.10,,,0.58,weatherlink.com 1.10,2013-03-06 05:31:00,
2013-03-05 21:46:00,45.5,45.0,29.78,South,173,8.0,21.0,99,0.09,,,0.61,weatherlink.com 1.10,2013-03-06 05:46:00,
2013-03-05 22:01:00,45.6,45.0,29.78,South,191,10.0,21.0,99,0.07,,,0.61,weatherlink.com 1.10,2013-03-06 06:01:00,
2013-03-05 22:16:00,45.6,45.0,29.77,SSE,167,11.0,17.0,99,0.07,,,0.64,weatherlink.com 1.10,2013-03-06 06:16:00,
2013-03-05 22:31:00,45.8,46.0,29.77,SSW,194,9.0,19.0,100,0.09,,,0.67,weatherlink.com 1.10,2013-03-06 06:31:00,
2013-03-05 22:46:00,45.9,46.0,29.79,SSE,161,10.0,22.0,100,0.11,,,0.72,weatherlink.com 1.10,2013-03-06 06:46:00,
2013-03-05 23:01:00,46.2,46.0,29.79,SE,146,11.0,20.0,100,0.21,,,0.82,weatherlink.com 1.10,2013-03-06 07:01:00,
2013-03-05 23:16:00,45.9,46.0,29.78,SSE,163,7.0,21.0,99,0.24,,,0.89,weatherlink.com 1.10,2013-03-06 07:16:00,
2013-03-05 23:32:00,45.5,45.0,29.78,South,169,10.0,23.0,99,0.34,,,1.02,weatherlink.com 1.10,2013-03-06 07:32:00,
2013-03-05 23:45:00,45.2,45.0,29.79,SW,223,9.0,20.0,98,0.36,,,1.08,weatherlink.com 1.10,2013-03-06 07:45:00,